Hourly Data Report for November 28, 2019

QUALICUM BEACH AIRPORT
BRITISH COLUMBIA
Current Station Operator: ECCC - MSC

49°20'14.000" N
124°23'38.000" W
58.20 m
1026562
71766
VOQ

Download Data

Hourly Data (November 2019)
Hourly Data Report for November 28, 2019
TIME
LST
Temp Definition
°C
Dew Point Definition
°C
Rel Hum Definition
%
Precip. Amount Definition
mm

Wind Dir Definition
10's deg

Wind Spd Definition
km/h
Visibility Definition
km
Stn Press Definition
kPa
Hmdx Definition


Wind Chill Definition


Weather Definition


00:00 -0.4 -7.8 57 LegendMM 26 7   100.54   -3 LegendNANA
01:00 -1.0 -8.1 58 LegendMM 26 7   100.56   -4 LegendNANA
02:00 0.4 -7.4 56 LegendMM 28 11   100.61     LegendNANA
03:00 -0.5 -9.3 52 LegendMM 27 10   100.61   -4 LegendNANA
04:00 -0.1 -9.1 51 LegendMM 27 9   100.57   -3 LegendNANA
05:00 -1.2 -8.5 57 LegendMM 27 9   100.61   -4 LegendNANA
06:00 -0.6 -10.2 48 LegendMM 27 8   100.67   -3 LegendNANA
07:00 -0.7 -9.9 50 LegendMM 26 9   100.72   -4 LegendNANA
08:00 -0.8 -10.3 49 LegendMM 26 7   100.75   -3 LegendNANA
09:00 0.9 -11.4 39 LegendMM 26 8   100.78     LegendNANA
10:00 2.2 -11.0 37 LegendMM 27 8   100.82     LegendNANA
11:00 3.4 -9.6 38 LegendMM 28 7   100.83     LegendNANA
12:00 4.0 -6.8 45 LegendMM 30 10   100.80     LegendNANA
13:00 4.4 -6.3 46 LegendMM 31 10   100.77     LegendNANA
14:00 4.6 -6.9 43 LegendMM 32 6   100.73     LegendNANA
15:00 4.2 -5.8 48 LegendMM 28 4   100.72     LegendNANA
16:00 1.1 -5.6 61 LegendMM 26 1   100.73     LegendNANA
17:00 -0.9 -5.0 73 LegendMM 25 2   100.75   -2 LegendNANA
18:00 -2.2 -4.9 82 LegendMM 23 5   100.76   -4 LegendNANA
19:00 -2.0 -4.8 81 LegendMM 24 7   100.77   -5 LegendNANA
20:00 -1.8 -4.9 79 LegendMM 24 6   100.77   -4 LegendNANA
21:00 -3.5 -5.9 83 LegendMM 22 5   100.79   -6 LegendNANA
22:00 -3.8 -5.8 86 LegendMM 26 3   100.78   -5 LegendNANA
23:00 -3.5 -5.5 86 LegendMM 0 1   100.79   -4 LegendNANA

Notes on Data Quality.

Legend

  • E = Estimated
  • M = Missing
  • NA = Not Available*
  • [empty] = Indicates an unobserved value
Date modified: